Back to catalog

STARLINK-5594

AliveCommunicationsVLEO
NORAD 55742·PAYLOAD·🇺🇸 United States

Launched Mar 3, 2023 from Vandenberg Space Force Base

Loading…

Next Passes (next 24 hours)

TLE

FreshSource: CelesTrak SupGP

Epoch: Sep 14, 2026, 13:11 UTC

1 55742C 23028B   26257.54979167  .00762210  00000+0  62416-1 0  2572
2 55742  69.9998 128.4160 0003252 263.5285 184.5652 14.98839227    15

Track STARLINK-5594 in real time with AllMySat

Download on the App Store